| time (UTC) | temp C | wind direction | speed KPH | gust KPH | rain 1hr cm | rain 24hr cm | rain mn cm | humidity % | barometer mb |
| 20260506073051 | 8 | 0 | 3.2 | 19.3 | 0.00 | 0.00 | 0.00 | 78 | 1012.8 |
| 20260506072541 | 9 | 0 | 1.6 | 16.1 | 0.00 | 0.00 | 0.00 | 79 | 1012.8 |
| 20260506072041 | 9 | 355 | 0.0 | 16.1 | 0.00 | 0.00 | 0.00 | 79 | 1012.8 |
| 20260506071556 | 9 | 346 | 3.2 | 17.7 | 0.00 | 0.00 | 0.00 | 79 | 1012.8 |
| 20260506071041 | 8 | 0 | 1.6 | 20.9 | 0.00 | 0.00 | 0.00 | 79 | 1012.8 |
| 20260506070543 | 8 | 0 | 4.8 | 20.9 | 0.00 | 0.00 | 0.00 | 79 | 1012.8 |
| 20260506062041 | 8 | 311 | 3.2 | 14.5 | 0.00 | 0.00 | 0.00 | 82 | 1012.7 |
| 20260506061555 | 8 | 40 | 3.2 | 14.5 | 0.00 | 0.00 | 0.00 | 81 | 1012.7 |
| 20260506061041 | 7 | 0 | 1.6 | 14.5 | 0.00 | 0.00 | 0.00 | 82 | 1012.7 |
| 20260506060542 | 7 | 0 | 3.2 | 12.9 | 0.00 | 0.00 | 0.00 | 82 | 1012.7 |
| 20260506051042 | 7 | 360 | 0.0 | 9.7 | 0.00 | 0.00 | 0.00 | 83 | 1012.3 |
| 20260506050545 | 7 | 327 | 3.2 | 9.7 | 0.00 | 0.00 | 0.00 | 83 | 1012.3 |
| 20260506045041 | 7 | 0 | 3.2 | 9.7 | 0.00 | 0.00 | 0.00 | 82 | 1012.4 |
| 20260506044550 | 7 | 0 | 1.6 | 9.7 | 0.00 | 0.00 | 0.00 | 82 | 1012.4 |
| 20260506044041 | 7 | 0 | 0.0 | 8.0 | 0.00 | 0.00 | 0.00 | 82 | 1012.2 |
| 20260506043541 | 7 | 333 | 0.0 | 8.0 | 0.00 | 0.00 | 0.00 | 82 | 1012.3 |
| 20260506043050 | 7 | 331 | 1.6 | 16.1 | 0.00 | 0.00 | 0.00 | 82 | 1012.3 |
| 20260506042542 | 7 | 0 | 1.6 | 16.1 | 0.00 | 0.00 | 0.00 | 82 | 1012.3 |
| 20260506042045 | 7 | 340 | 3.2 | 12.9 | 0.00 | 0.00 | 0.00 | 82 | 1012.3 |
| 20260506041559 | 7 | 0 | 3.2 | 12.9 | 0.00 | 0.00 | 0.00 | 82 | 1012.4 |
| 20260506041041 | 7 | 342 | 3.2 | 12.9 | 0.00 | 0.00 | 0.00 | 82 | 1012.4 |
| 20260506040539 | 7 | 355 | 3.2 | 9.7 | 0.00 | 0.00 | 0.00 | 82 | 1012.4 |
| 20260506040109 | 7 | 0 | 0.0 | 9.7 | 0.00 | 0.00 | 0.00 | 82 | 1012.4 |
| 20260506035541 | 8 | 355 | 0.0 | 12.9 | 0.00 | 0.00 | 0.00 | 82 | 1012.3 |
| 20260506035039 | 8 | 323 | 3.2 | 12.9 | 0.00 | 0.00 | 0.00 | 82 | 1012.3 |
| 20260506034551 | 8 | 340 | 3.2 | 14.5 | 0.00 | 0.00 | 0.00 | 82 | 1012.3 |
| 20260506034042 | 8 | 355 | 4.8 | 20.9 | 0.00 | 0.00 | 0.00 | 81 | 1012.3 |
| 20260506033540 | 8 | 345 | 8.0 | 20.9 | 0.00 | 0.00 | 0.00 | 82 | 1012.3 |
| 20260506033047 | 8 | 0 | 4.8 | 22.5 | 0.00 | 0.00 | 0.00 | 82 | 1012.2 |
| 20260506032541 | 8 | 9 | 6.4 | 22.5 | 0.00 | 0.00 | 0.00 | 82 | 1012.3 |
| 20260506032043 | 8 | 307 | 6.4 | 19.3 | 0.00 | 0.00 | 0.00 | 82 | 1012.1 |
| 20260506031553 | 8 | 281 | 4.8 | 19.3 | 0.00 | 0.00 | 0.00 | 82 | 1012.2 |
| 20260506031044 | 8 | 286 | 6.4 | 19.3 | 0.00 | 0.00 | 0.00 | 82 | 1012.2 |
| 20260506030541 | 8 | 300 | 4.8 | 20.9 | 0.00 | 0.00 | 0.00 | 82 | 1012.2 |
| 20260506030100 | 8 | 11 | 9.7 | 20.9 | 0.00 | 0.00 | 0.00 | 82 | 1012.2 |
| 20260506025541 | 8 | 5 | 8.0 | 20.9 | 0.00 | 0.00 | 0.00 | 82 | 1012.2 |
| 20260506025041 | 8 | 5 | 6.4 | 16.1 | 0.00 | 0.00 | 0.00 | 82 | 1012.2 |
| 20260506024556 | 8 | 326 | 6.4 | 16.1 | 0.00 | 0.00 | 0.00 | 82 | 1012.2 |
| 20260506024042 | 8 | 0 | 4.8 | 20.9 | 0.00 | 0.00 | 0.00 | 83 | 1012.2 |
| 20260506023540 | 8 | 17 | 6.4 | 20.9 | 0.00 | 0.00 | 0.00 | 82 | 1012.3 |
| 20260506023047 | 8 | 312 | 8.0 | 20.9 | 0.00 | 0.00 | 0.00 | 82 | 1012.3 |
| 20260506022541 | 8 | 344 | 6.4 | 14.5 | 0.00 | 0.00 | 0.00 | 82 | 1012.2 |
| 20260506022041 | 8 | 343 | 3.2 | 17.7 | 0.00 | 0.00 | 0.00 | 82 | 1012.3 |
| 20260506021556 | 8 | 338 | 6.4 | 17.7 | 0.00 | 0.00 | 0.00 | 82 | 1012.3 |
| 20260506021041 | 8 | 23 | 3.2 | 16.1 | 0.00 | 0.00 | 0.00 | 82 | 1012.3 |
| 20260506020540 | 8 | 5 | 4.8 | 12.9 | 0.00 | 0.00 | 0.00 | 82 | 1012.5 |
| 20260506020052 | 8 | 304 | 3.2 | 16.1 | 0.00 | 0.00 | 0.00 | 82 | 1012.4 |
| 20260506015541 | 9 | 0 | 3.2 | 16.1 | 0.00 | 0.00 | 0.00 | 82 | 1012.4 |
| 20260506015044 | 9 | 26 | 8.0 | 16.1 | 0.00 | 0.00 | 0.00 | 82 | 1012.4 |
| 20260506014557 | 9 | 352 | 1.6 | 14.5 | 0.00 | 0.00 | 0.00 | 83 | 1012.4 |
| 20260506014041 | 9 | 5 | 4.8 | 14.5 | 0.00 | 0.00 | 0.00 | 83 | 1012.4 |
| 20260506013540 | 9 | 0 | 3.2 | 12.9 | 0.00 | 0.00 | 0.00 | 83 | 1012.3 |
| 20260506013051 | 9 | 346 | 3.2 | 12.9 | 0.00 | 0.00 | 0.00 | 83 | 1012.4 |
| 20260506012542 | 9 | 0 | 3.2 | 14.5 | 0.00 | 0.00 | 0.00 | 83 | 1012.3 |
| 20260506012042 | 9 | 360 | 3.2 | 14.5 | 0.00 | 0.00 | 0.00 | 83 | 1012.4 |
| 20260506011550 | 9 | 39 | 1.6 | 12.9 | 0.00 | 0.00 | 0.00 | 83 | 1012.4 |
| 20260506011041 | 9 | 5 | 3.2 | 14.5 | 0.00 | 0.00 | 0.00 | 83 | 1012.4 |
| 20260506010541 | 9 | 25 | 4.8 | 14.5 | 0.00 | 0.00 | 0.00 | 82 | 1012.5 |
| 20260506010052 | 9 | 336 | 4.8 | 14.5 | 0.00 | 0.00 | 0.00 | 82 | 1012.5 |
| 20260506005541 | 10 | 355 | 4.8 | 14.5 | 0.00 | 0.00 | 0.00 | 82 | 1012.5 |
| 20260506005041 | 10 | 0 | 4.8 | 19.3 | 0.00 | 0.00 | 0.00 | 82 | 1012.5 |
| 20260506004552 | 10 | 332 | 6.4 | 19.3 | 0.00 | 0.00 | 0.00 | 82 | 1012.5 |
| 20260506004041 | 10 | 360 | 6.4 | 17.7 | 0.00 | 0.00 | 0.00 | 82 | 1012.5 |
| 20260506003541 | 10 | 0 | 6.4 | 17.7 | 0.00 | 0.00 | 0.00 | 82 | 1012.5 |
| 20260506003049 | 10 | 0 | 1.6 | 16.1 | 0.00 | 0.00 | 0.00 | 81 | 1012.5 |
| 20260506002540 | 10 | 355 | 4.8 | 16.1 | 0.00 | 0.00 | 0.00 | 81 | 1012.7 |
| 20260506002040 | 10 | 30 | 6.4 | 12.9 | 0.00 | 0.00 | 0.00 | 81 | 1012.6 |
| 20260506001553 | 10 | 328 | 1.6 | 8.0 | 0.00 | 0.00 | 0.00 | 80 | 1012.6 |
| 20260506001041 | 10 | 340 | 3.2 | 17.7 | 0.00 | 0.00 | 0.00 | 80 | 1012.6 |
| 20260506000541 | 10 | 61 | 8.0 | 17.7 | 0.00 | 0.00 | 0.00 | 80 | 1012.7 |
| 20260506000047 | 10 | 338 | 3.2 | 17.7 | 0.00 | 0.00 | 0.00 | 80 | 1012.7 |
| 20260505235541 | 10 | 15 | 6.4 | 17.7 | 0.00 | 0.00 | 0.00 | 79 | 1012.6 |
| 20260505235042 | 10 | 344 | 8.0 | 17.7 | 0.00 | 0.00 | 0.00 | 79 | 1012.6 |
| 20260505234545 | 10 | 38 | 6.4 | 17.7 | 0.00 | 0.00 | 0.00 | 78 | 1012.5 |
| 20260505234041 | 10 | 5 | 8.0 | 20.9 | 0.00 | 0.00 | 0.00 | 78 | 1012.7 |
| 20260505233539 | 10 | 5 | 4.8 | 20.9 | 0.00 | 0.00 | 0.00 | 78 | 1012.6 |
| 20260505233045 | 10 | 5 | 6.4 | 20.9 | 0.00 | 0.00 | 0.00 | 78 | 1012.5 |
| 20260505232539 | 10 | 28 | 3.2 | 20.9 | 0.00 | 0.00 | 0.00 | 77 | 1012.6 |
| 20260505232040 | 10 | 335 | 4.8 | 20.9 | 0.00 | 0.00 | 0.00 | 77 | 1012.4 |
| 20260505231550 | 10 | 360 | 8.0 | 22.5 | 0.00 | 0.00 | 0.00 | 77 | 1012.5 |
| 20260505231040 | 10 | 25 | 8.0 | 22.5 | 0.00 | 0.00 | 0.00 | 77 | 1012.5 |
| 20260505230541 | 10 | 12 | 8.0 | 22.5 | 0.00 | 0.00 | 0.00 | 77 | 1012.5 |
| 20260505230051 | 10 | 29 | 8.0 | 17.7 | 0.00 | 0.00 | 0.00 | 77 | 1012.7 |
| 20260505225542 | 11 | 17 | 6.4 | 22.5 | 0.00 | 0.00 | 0.00 | 77 | 1012.7 |
| 20260505225041 | 11 | 333 | 6.4 | 22.5 | 0.00 | 0.00 | 0.00 | 77 | 1012.6 |
| 20260505224551 | 11 | 10 | 8.0 | 22.5 | 0.00 | 0.00 | 0.00 | 77 | 1012.5 |
| 20260505224040 | 11 | 43 | 9.7 | 19.3 | 0.00 | 0.00 | 0.00 | 77 | 1012.5 |
| 20260505223541 | 11 | 5 | 6.4 | 19.3 | 0.00 | 0.00 | 0.00 | 76 | 1012.4 |
| 20260505223051 | 11 | 334 | 8.0 | 22.5 | 0.00 | 0.00 | 0.00 | 76 | 1012.4 |
| 20260505222539 | 11 | 281 | 9.7 | 24.1 | 0.00 | 0.00 | 0.00 | 76 | 1012.4 |
| 20260505222041 | 11 | 38 | 8.0 | 24.1 | 0.00 | 0.00 | 0.00 | 75 | 1012.3 |
| 20260505221553 | 11 | 327 | 11.3 | 24.1 | 0.00 | 0.00 | 0.00 | 75 | 1012.3 |
| 20260505221043 | 11 | 333 | 8.0 | 25.7 | 0.00 | 0.00 | 0.00 | 74 | 1012.3 |
| 20260505220539 | 11 | 327 | 9.7 | 25.7 | 0.00 | 0.00 | 0.00 | 74 | 1012.3 |
| 20260505220055 | 12 | 355 | 6.4 | 22.5 | 0.00 | 0.00 | 0.00 | 74 | 1012.2 |
| 20260505215541 | 12 | 17 | 8.0 | 22.5 | 0.00 | 0.00 | 0.00 | 73 | 1012.2 |
| 20260505215041 | 12 | 5 | 6.4 | 19.3 | 0.00 | 0.00 | 0.00 | 73 | 1012.2 |
| 20260505214543 | 12 | 28 | 4.8 | 16.1 | 0.00 | 0.00 | 0.00 | 73 | 1012.1 |
| 20260505214041 | 12 | 44 | 6.4 | 17.7 | 0.00 | 0.00 | 0.00 | 73 | 1012.1 |
| 20260505213542 | 12 | 17 | 4.8 | 19.3 | 0.00 | 0.00 | 0.00 | 73 | 1012.0 |
| 20260505213047 | 12 | 23 | 6.4 | 19.3 | 0.00 | 0.00 | 0.00 | 73 | 1012.1 |
| 20260505212541 | 12 | 70 | 8.0 | 19.3 | 0.00 | 0.00 | 0.00 | 73 | 1011.9 |
| 20260505212041 | 12 | 24 | 4.8 | 19.3 | 0.00 | 0.00 | 0.00 | 73 | 1011.9 |
| 20260505211548 | 12 | 18 | 9.7 | 19.3 | 0.00 | 0.00 | 0.00 | 73 | 1011.9 |
| 20260505211040 | 12 | 19 | 6.4 | 20.9 | 0.00 | 0.00 | 0.00 | 73 | 1012.0 |
| 20260505210541 | 12 | 329 | 8.0 | 20.9 | 0.00 | 0.00 | 0.00 | 73 | 1011.8 |
| 20260505210048 | 12 | 10 | 9.7 | 20.9 | 0.00 | 0.00 | 0.00 | 73 | 1011.8 |
| 20260505205543 | 12 | 10 | 4.8 | 20.9 | 0.00 | 0.00 | 0.00 | 73 | 1011.9 |
| 20260505205042 | 12 | 337 | 9.7 | 20.9 | 0.00 | 0.00 | 0.00 | 73 | 1011.9 |
| 20260505204548 | 12 | 346 | 8.0 | 20.9 | 0.00 | 0.00 | 0.00 | 72 | 1011.8 |
| 20260505204041 | 12 | 25 | 6.4 | 20.9 | 0.00 | 0.00 | 0.00 | 72 | 1011.7 |
| 20260505203541 | 12 | 5 | 8.0 | 16.1 | 0.00 | 0.00 | 0.00 | 72 | 1011.7 |
| 20260505203050 | 12 | 336 | 4.8 | 16.1 | 0.00 | 0.00 | 0.00 | 72 | 1011.7 |
| 20260505202541 | 12 | 12 | 4.8 | 16.1 | 0.00 | 0.00 | 0.00 | 72 | 1011.6 |
| 20260505202041 | 12 | 355 | 6.4 | 20.9 | 0.00 | 0.00 | 0.00 | 72 | 1011.6 |
| 20260505201553 | 12 | 42 | 4.8 | 22.5 | 0.00 | 0.00 | 0.00 | 72 | 1011.7 |
| 20260505201040 | 12 | 338 | 6.4 | 22.5 | 0.00 | 0.00 | 0.00 | 72 | 1011.7 |
| 20260505200541 | 12 | 355 | 8.0 | 19.3 | 0.00 | 0.00 | 0.00 | 72 | 1011.6 |
| 20260505200049 | 12 | 26 | 8.0 | 20.9 | 0.00 | 0.00 | 0.00 | 72 | 1011.5 |
| 20260505195540 | 12 | 17 | 8.0 | 22.5 | 0.00 | 0.00 | 0.00 | 72 | 1011.5 |
| 20260505195041 | 13 | 320 | 6.4 | 22.5 | 0.00 | 0.00 | 0.00 | 72 | 1011.5 |
| 20260505194556 | 13 | 45 | 4.8 | 19.3 | 0.00 | 0.00 | 0.00 | 72 | 1011.3 |
| 20260505194043 | 13 | 342 | 9.7 | 19.3 | 0.00 | 0.00 | 0.00 | 72 | 1011.3 |
| 20260505193541 | 13 | 298 | 6.4 | 22.5 | 0.00 | 0.00 | 0.00 | 72 | 1011.3 |
| 20260505193103 | 13 | 348 | 6.4 | 22.5 | 0.00 | 0.00 | 0.00 | 73 | 1011.2 |
| 20260505192541 | 13 | 355 | 4.8 | 19.3 | 0.00 | 0.00 | 0.00 | 73 | 1011.2 |
| 20260505192042 | 13 | 14 | 4.8 | 14.5 | 0.00 | 0.00 | 0.00 | 73 | 1011.1 |
| 20260505191543 | 13 | 346 | 4.8 | 17.7 | 0.00 | 0.00 | 0.00 | 72 | 1011.0 |
| 20260505191041 | 13 | 346 | 6.4 | 17.7 | 0.00 | 0.00 | 0.00 | 72 | 1011.0 |
| 20260505190540 | 13 | 15 | 4.8 | 16.1 | 0.00 | 0.00 | 0.00 | 72 | 1011.0 |
| 20260505190050 | 13 | 5 | 6.4 | 22.5 | 0.00 | 0.00 | 0.00 | 71 | 1010.9 |
| 20260505185542 | 13 | 348 | 8.0 | 22.5 | 0.00 | 0.00 | 0.00 | 71 | 1010.9 |
| 20260505185040 | 13 | 333 | 9.7 | 22.5 | 0.00 | 0.00 | 0.00 | 70 | 1010.9 |
| 20260505184555 | 13 | 5 | 4.8 | 17.7 | 0.00 | 0.00 | 0.00 | 70 | 1010.8 |
| 20260505184043 | 14 | 343 | 3.2 | 8.0 | 0.00 | 0.00 | 0.00 | 70 | 1010.9 |
| 20260505183541 | 14 | 5 | 1.6 | 8.0 | 0.00 | 0.00 | 0.00 | 70 | 1010.8 |
| 20260505183044 | 14 | 343 | 3.2 | 8.0 | 0.00 | 0.00 | 0.00 | 71 | 1010.7 |
| 20260505182540 | 14 | 342 | 1.6 | 9.7 | 0.00 | 0.00 | 0.00 | 71 | 1010.8 |
| 20260505182037 | 14 | 13 | 1.6 | 9.7 | 0.00 | 0.00 | 0.00 | 71 | 1010.7 |
| 20260505181548 | 14 | 285 | 0.0 | 4.8 | 0.00 | 0.00 | 0.00 | 71 | 1010.8 |
| 20260505181041 | 14 | 0 | 0.0 | 8.0 | 0.00 | 0.00 | 0.00 | 70 | 1010.8 |
| 20260505180540 | 14 | 338 | 1.6 | 9.7 | 0.00 | 0.00 | 0.00 | 70 | 1010.8 |
| 20260505180051 | 14 | 20 | 3.2 | 9.7 | 0.00 | 0.00 | 0.00 | 70 | 1010.8 |
| 20260505175541 | 14 | 5 | 1.6 | 8.0 | 0.00 | 0.00 | 0.00 | 70 | 1010.8 |
| 20260505175042 | 14 | 351 | 1.6 | 9.7 | 0.00 | 0.00 | 0.00 | 70 | 1010.8 |
| 20260505174550 | 14 | 319 | 3.2 | 11.3 | 0.00 | 0.00 | 0.00 | 70 | 1010.8 |
| 20260505174043 | 14 | 298 | 3.2 | 11.3 | 0.00 | 0.00 | 0.00 | 70 | 1010.7 |
| 20260505173542 | 14 | 267 | 4.8 | 11.3 | 0.00 | 0.00 | 0.00 | 70 | 1010.8 |
| 20260505173049 | 15 | 355 | 3.2 | 14.5 | 0.00 | 0.00 | 0.00 | 70 | 1010.8 |
| 20260505172541 | 15 | 294 | 3.2 | 14.5 | 0.00 | 0.00 | 0.00 | 69 | 1010.8 |
| 20260505172040 | 15 | 350 | 3.2 | 14.5 | 0.00 | 0.00 | 0.00 | 69 | 1010.9 |
| 20260505171553 | 15 | 289 | 4.8 | 14.5 | 0.00 | 0.00 | 0.00 | 69 | 1010.9 |
| 20260505171041 | 15 | 0 | 3.2 | 16.1 | 0.00 | 0.00 | 0.00 | 69 | 1010.9 |
| 20260505170540 | 15 | 281 | 4.8 | 16.1 | 0.00 | 0.00 | 0.00 | 69 | 1010.8 |
| 20260505170051 | 15 | 300 | 3.2 | 12.9 | 0.00 | 0.00 | 0.00 | 69 | 1010.8 |
| 20260505165540 | 15 | 273 | 3.2 | 14.5 | 0.00 | 0.00 | 0.00 | 70 | 1010.8 |
| 20260505165037 | 15 | 293 | 4.8 | 14.5 | 0.00 | 0.00 | 0.00 | 70 | 1010.9 |
| 20260505164551 | 15 | 288 | 4.8 | 14.5 | 0.00 | 0.00 | 0.00 | 69 | 1010.9 |
| 20260505164041 | 15 | 286 | 3.2 | 12.9 | 0.00 | 0.00 | 0.00 | 70 | 1010.8 |
| 20260505163537 | 15 | 279 | 4.8 | 12.9 | 0.00 | 0.00 | 0.00 | 69 | 1010.8 |
| 20260505163043 | 15 | 290 | 3.2 | 14.5 | 0.00 | 0.00 | 0.00 | 69 | 1010.9 |
| 20260505162540 | 15 | 281 | 6.4 | 14.5 | 0.00 | 0.00 | 0.00 | 69 | 1010.8 |
| 20260505162041 | 15 | 314 | 6.4 | 14.5 | 0.00 | 0.00 | 0.00 | 68 | 1011.0 |
| 20260505161601 | 15 | 288 | 6.4 | 12.9 | 0.00 | 0.00 | 0.00 | 68 | 1010.8 |
| 20260505161041 | 15 | 282 | 3.2 | 12.9 | 0.00 | 0.00 | 0.00 | 67 | 1010.8 |
| 20260505160541 | 15 | 286 | 4.8 | 11.3 | 0.00 | 0.00 | 0.00 | 68 | 1010.9 |
| 20260505153101 | 15 | 0 | 4.8 | 16.1 | 0.00 | 0.00 | 0.00 | 67 | 1010.8 |
| 20260505152544 | 16 | 276 | 6.4 | 16.1 | 0.00 | 0.00 | 0.00 | 67 | 1011.0 |
| 20260505152042 | 15 | 225 | 3.2 | 9.7 | 0.00 | 0.00 | 0.00 | 66 | 1010.8 |
| 20260505151546 | 16 | 0 | 1.6 | 9.7 | 0.00 | 0.00 | 0.00 | 66 | 1011.0 |
| 20260505151044 | 15 | 324 | 3.2 | 11.3 | 0.00 | 0.00 | 0.00 | 66 | 1011.0 |
| 20260505150542 | 15 | 292 | 1.6 | 11.3 | 0.00 | 0.00 | 0.00 | 67 | 1011.0 |
| 20260505140541 | 15 | 349 | 1.6 | 6.4 | 0.00 | 0.00 | 0.00 | 69 | 1011.2 |
| 20260505125040 | 15 | 360 | 3.2 | 14.5 | 0.00 | 0.00 | 0.00 | 64 | 1011.5 |
| 20260505124550 | 16 | 83 | 6.4 | 14.5 | 0.00 | 0.00 | 0.00 | 62 | 1011.5 |
| 20260505124041 | 16 | 340 | 3.2 | 16.1 | 0.00 | 0.00 | 0.00 | 65 | 1011.5 |
| 20260505123546 | 16 | 344 | 4.8 | 16.1 | 0.00 | 0.00 | 0.00 | 64 | 1011.6 |
| 20260505123053 | 16 | 339 | 3.2 | 12.9 | 0.00 | 0.00 | 0.00 | 65 | 1011.6 |
| 20260505122541 | 16 | 22 | 3.2 | 14.5 | 0.00 | 0.00 | 0.00 | 65 | 1011.6 |
| 20260505122041 | 16 | 355 | 3.2 | 14.5 | 0.00 | 0.00 | 0.00 | 65 | 1011.6 |
| 20260505121550 | 16 | 346 | 6.4 | 14.5 | 0.00 | 0.00 | 0.00 | 64 | 1011.5 |
| 20260505121045 | 16 | 32 | 3.2 | 12.9 | 0.00 | 0.00 | 0.00 | 64 | 1011.6 |
| 20260505120540 | 16 | 360 | 3.2 | 14.5 | 0.00 | 0.00 | 0.00 | 64 | 1011.5 |
| 20260505120056 | 16 | 343 | 6.4 | 14.5 | 0.00 | 0.00 | 0.00 | 64 | 1011.5 |
| 20260505115541 | 16 | 17 | 4.8 | 16.1 | 0.00 | 0.00 | 0.00 | 64 | 1011.6 |
| 20260505115040 | 16 | 57 | 4.8 | 16.1 | 0.00 | 0.00 | 0.00 | 65 | 1011.5 |
| 20260505114551 | 16 | 335 | 6.4 | 16.1 | 0.00 | 0.00 | 0.00 | 64 | 1011.5 |
| 20260505114041 | 16 | 329 | 3.2 | 14.5 | 0.00 | 0.00 | 0.00 | 66 | 1011.6 |
| 20260505113545 | 16 | 22 | 4.8 | 12.9 | 0.00 | 0.00 | 0.00 | 63 | 1011.6 |
| 20260505113051 | 17 | 355 | 4.8 | 14.5 | 0.00 | 0.00 | 0.00 | 62 | 1011.7 |
| 20260505112541 | 17 | 0 | 4.8 | 14.5 | 0.00 | 0.00 | 0.00 | 65 | 1011.7 |
| 20260505112041 | 17 | 343 | 3.2 | 9.7 | 0.00 | 0.00 | 0.00 | 67 | 1011.8 |
| 20260505111551 | 16 | 284 | 3.2 | 12.9 | 0.00 | 0.00 | 0.00 | 69 | 1011.8 |
| 20260505111041 | 16 | 318 | 4.8 | 12.9 | 0.00 | 0.00 | 0.00 | 66 | 1011.8 |
| 20260505110541 | 16 | 5 | 0.0 | 8.0 | 0.00 | 0.00 | 0.00 | 70 | 1011.9 |
| 20260505102045 | 13 | 24 | 0.0 | 12.9 | 0.00 | 0.00 | 0.00 | 76 | 1012.3 |
| 20260505101553 | 13 | 0 | 1.6 | 14.5 | 0.00 | 0.00 | 0.00 | 76 | 1012.4 |
| 20260505101041 | 14 | 0 | 1.6 | 14.5 | 0.00 | 0.00 | 0.00 | 76 | 1012.4 |
| 20260505100543 | 14 | 0 | 1.6 | 11.3 | 0.00 | 0.00 | 0.00 | 77 | 1012.3 |
| 20260505100053 | 14 | 34 | 0.0 | 6.4 | 0.00 | 0.00 | 0.00 | 79 | 1012.3 |
| 20260505095541 | 14 | 0 | 0.0 | 8.0 | 0.00 | 0.00 | 0.00 | 79 | 1012.3 |
| 20260505095041 | 13 | 0 | 0.0 | 8.0 | 0.00 | 0.00 | 0.00 | 81 | 1012.4 |
| 20260505094549 | 12 | 12 | 0.0 | 8.0 | 0.00 | 0.00 | 0.00 | 84 | 1012.5 |
| 20260505094041 | 12 | 0 | 0.0 | 6.4 | 0.00 | 0.00 | 0.00 | 84 | 1012.5 |
| 20260505093541 | 11 | 0 | 0.0 | 6.4 | 0.00 | 0.00 | 0.00 | 84 | 1012.7 |
| 20260505093050 | 11 | 0 | 0.0 | 6.4 | 0.00 | 0.00 | 0.00 | 84 | 1012.7 |
| 20260505092541 | 11 | 327 | 0.0 | 9.7 | 0.00 | 0.00 | 0.00 | 83 | 1012.7 |
| 20260505092041 | 11 | 0 | 0.0 | 12.9 | 0.00 | 0.00 | 0.00 | 83 | 1012.7 |
| 20260505091613 | 11 | 360 | 1.6 | 14.5 | 0.00 | 0.00 | 0.00 | 83 | 1012.6 |
| 20260505091042 | 11 | 0 | 3.2 | 14.5 | 0.00 | 0.00 | 0.00 | 83 | 1012.6 |
| 20260505090541 | 11 | 342 | 4.8 | 14.5 | 0.00 | 0.00 | 0.00 | 84 | 1012.7 |
| 20260505090104 | 11 | 336 | 3.2 | 12.9 | 0.00 | 0.00 | 0.00 | 84 | 1012.7 |
| 20260505085540 | 11 | 355 | 4.8 | 12.9 | 0.00 | 0.00 | 0.00 | 85 | 1012.7 |
| 20260505085041 | 11 | 355 | 3.2 | 11.3 | 0.00 | 0.00 | 0.00 | 86 | 1012.7 |
| 20260505084605 | 11 | 344 | 1.6 | 8.0 | 0.00 | 0.00 | 0.00 | 86 | 1012.7 |
| 20260505084040 | 11 | 0 | 0.0 | 6.4 | 0.00 | 0.00 | 0.00 | 87 | 1012.8 |
| 20260505083540 | 11 | 0 | 1.6 | 8.0 | 0.00 | 0.00 | 0.00 | 87 | 1012.7 |
| 20260505083103 | 11 | 0 | 1.6 | 12.9 | 0.00 | 0.00 | 0.00 | 88 | 1012.8 |
| 20260505082542 | 11 | 321 | 1.6 | 12.9 | 0.00 | 0.00 | 0.00 | 88 | 1012.8 |
| 20260505082041 | 11 | 360 | 0.0 | 4.8 | 0.00 | 0.00 | 0.00 | 89 | 1012.8 |
| 20260505081600 | 11 | 0 | 0.0 | 4.8 | 0.00 | 0.00 | 0.00 | 89 | 1012.8 |
| 20260505081043 | 11 | 0 | 0.0 | 4.8 | 0.00 | 0.00 | 0.00 | 89 | 1012.7 |
| 20260505080541 | 11 | 0 | 0.0 | 4.8 | 0.00 | 0.00 | 0.00 | 89 | 1012.8 |
| 20260505080058 | 11 | 0 | 0.0 | 3.2 | 0.00 | 0.00 | 0.00 | 90 | 1012.8 |
| 20260505075542 | 11 | 341 | 0.0 | 3.2 | 0.00 | 0.00 | 0.00 | 90 | 1012.7 |
| 20260505075041 | 11 | 0 | 0.0 | 3.2 | 0.00 | 0.00 | 0.00 | 90 | 1012.7 |
| 20260505074548 | 11 | 0 | 0.0 | 1.6 | 0.00 | 0.00 | 0.00 | 90 | 1012.7 |
| 20260505074041 | 11 | 0 | 0.0 | 1.6 | 0.00 | 0.00 | 0.00 | 90 | 1012.7 |
| 20260505073541 | 11 | 0 | 0.0 | 3.2 | 0.00 | 0.00 | 0.00 | 90 | 1012.8 |